Tracking 29892 objects as of 21-Nov-2024
HD Live streaming from Space Station
objects crossing your sky now

STARLINK-31040

Track STARLINK-31040 now!
10-day predictions
STARLINK-31040 is classified as:


NORAD ID: 58722
Int'l Code: 2024-002T
Perigee: 557.8 km
Apogee: 560.0 km
Inclination: 53.2 °
Period: 95.7 minutes
Semi major axis: 6929 km
RCS: Unknown
Launch date: January 3, 2024
Source: United States (US)
Launch site: AIR FORCE WESTERN TEST RANGE (AFWTR)
Your satellite tracking list
Your tracking list is empty




NASA's NSSDC Master Catalog

Two Line Element Set (TLE):
1 58722U 24002T   24325.20166269 -.00000588  00000-0 -21713-4 0  9991
2 58722  53.1604 237.1846 0001571  89.0044 271.1126 15.04922639 49863
Source of the keplerian elements: AFSPC